Marfa, TX

4:54 PM CST on February 22, 2017 (GMT -0600)
Marfa Municipal

Weather History for KMRF - December, 2012

Change the Weather History Date:

Tuesday, December 25, 2012

  Actual Average Record
Temperature  
Mean Temperature 40 °F -  
Max Temperature 51 °F 53 °F 72 °F (2015)
Min Temperature 28 °F 23 °F 14 °F (2001)
Degree Days  
Heating Degree Days 26    
Moisture  
Dew Point 18 °F    
Average Humidity 41    
Maximum Humidity 61    
Minimum Humidity 26    
Precipitation  
Precipitation 0.00 in - - ()
Sea Level Pressure  
Sea Level Pressure 29.96 in    
Wind  
Wind Speed 16 mph (NW)    
Max Wind Speed 31 mph    
Max Gust Speed 39 mph    
Visibility 10 miles    
Events      
Averages and records for this station are not official NWS values.
T = Trace of Precipitation, MM = Missing Value Source: NWS Daily Summary

Daily Weather History Graph

Daily Weather History Graph

Search for Another Location

Airport or City:

Trip Planner

Search our weather history database for the weather conditions in past years. The results will help you decide how hot, cold, wet, or windy it might be!

Date:

Astronomy

Dec. 25, 2012 Rise Set
Actual Time 7:50 AM CST 6:02 PM CST
Civil Twilight 7:24 AM CST 6:28 PM CST
Nautical Twilight 6:54 AM CST 6:58 PM CST
Astronomical Twilight 6:24 AM CST 7:28 PM CST
Moon 4:09 PM CST (12/25) 5:28 AM CST (12/25)
Length of Visible Light 11h 04m
Length of Day
10h 11m
Waxing Gibbous, 94% of the Moon is Illuminated
Dec 25
Waxing Gibbous
Dec 28
Full
Jan 4
Last Quarter
Jan 11
New
Jan 18
First Quarter

Hourly Weather History & Observations

Time (CST) Temp. Windchill Dew Point Humidity Pressure Visibility Wind Dir Wind Speed Gust Speed Precip Events Conditions
12:15 AM 32.0 °F - 8.6 °F 38% 29.79 in 10.0 mi Calm Calm - N/A   Clear
12:35 AM 30.2 °F - 8.6 °F 40% 29.79 in 10.0 mi Calm Calm - N/A   Clear
12:55 AM 30.2 °F - 6.8 °F 37% 29.78 in 10.0 mi Calm Calm - N/A   Clear
1:15 AM 35.6 °F - 8.6 °F 33% 29.78 in 10.0 mi Calm Calm - N/A   Clear
1:35 AM 42.8 °F 36.2 °F 15.8 °F 34% 29.77 in 10.0 mi SW 12.7 mph 16.1 mph N/A   Clear
1:55 AM 41.0 °F 32.8 °F 12.2 °F 31% 29.78 in 10.0 mi WSW 16.1 mph - N/A   Clear
2:15 AM 41.0 °F 33.5 °F 12.2 °F 31% 29.77 in 10.0 mi WSW 13.8 mph - N/A   Clear
2:35 AM 44.6 °F 36.4 °F 14.0 °F 29% 29.78 in 10.0 mi West 20.7 mph 25.3 mph N/A   Clear
2:55 AM 48.2 °F - 19.4 °F 32% 29.79 in 10.0 mi West 26.5 mph 31.1 mph N/A   Clear
3:15 AM 46.4 °F 37.7 °F 23.0 °F 40% 29.80 in 10.0 mi West 26.5 mph 32.2 mph N/A   Clear
3:35 AM 44.6 °F 35.5 °F 24.8 °F 46% 29.80 in 10.0 mi West 25.3 mph 29.9 mph N/A   Clear
3:55 AM 44.6 °F 35.1 °F 28.4 °F 53% 29.81 in 10.0 mi West 27.6 mph 34.5 mph N/A   Clear
4:15 AM 44.6 °F 35.7 °F 28.4 °F 53% 29.82 in 10.0 mi West 24.2 mph 32.2 mph N/A   Clear
4:35 AM 42.8 °F 34.3 °F 28.4 °F 57% 29.82 in 10.0 mi West 19.6 mph 29.9 mph N/A   Clear
4:55 AM 41.0 °F 33.5 °F 28.4 °F 61% 29.83 in 10.0 mi West 13.8 mph - N/A   Clear
5:15 AM 41.0 °F 34.3 °F 26.6 °F 57% 29.83 in 10.0 mi WNW 11.5 mph - N/A   Clear
5:35 AM 41.0 °F 31.9 °F 26.6 °F 57% 29.84 in 10.0 mi West 19.6 mph 24.2 mph N/A   Clear
5:55 AM 41.0 °F 30.9 °F 24.8 °F 53% 29.85 in 10.0 mi West 24.2 mph - N/A   Clear
6:15 AM 42.8 °F 33.1 °F 24.8 °F 49% 29.85 in 10.0 mi West 25.3 mph 29.9 mph N/A   Clear
6:35 AM 42.8 °F 32.5 °F 23.0 °F 46% 29.86 in 10.0 mi West 28.8 mph 34.5 mph N/A   Clear
6:55 AM 41.0 °F 31.4 °F 23.0 °F 49% 29.87 in 10.0 mi West 21.9 mph 27.6 mph N/A   Clear
7:15 AM 41.0 °F 31.6 °F 21.2 °F 45% 29.87 in 10.0 mi West 20.7 mph 26.5 mph N/A   Clear
7:35 AM 41.0 °F 31.1 °F 21.2 °F 45% 29.88 in 10.0 mi West 23.0 mph 31.1 mph N/A   Clear
7:55 AM 41.0 °F 29.8 °F 21.2 °F 45% 29.88 in 10.0 mi WNW 29.9 mph 35.7 mph N/A   Clear
8:15 AM 42.8 °F 32.9 °F 23.0 °F 46% 29.90 in 8.0 mi WNW 26.5 mph 35.7 mph N/A   Clear
8:35 AM 42.8 °F 32.7 °F 23.0 °F 46% 29.91 in 6.0 mi WNW 27.6 mph 36.8 mph N/A   Clear
8:55 AM 44.6 °F 35.1 °F 23.0 °F 43% 29.92 in 9.0 mi WNW 27.6 mph 35.7 mph N/A   Clear
9:15 AM 44.6 °F 34.7 °F 23.0 °F 43% 29.94 in 8.0 mi WNW 29.9 mph 38.0 mph N/A   Clear
9:35 AM 46.4 °F 37.9 °F 23.0 °F 40% 29.96 in 10.0 mi WNW 25.3 mph 34.5 mph N/A   Clear
9:55 AM 46.4 °F 37.4 °F 24.8 °F 43% 29.97 in 10.0 mi WNW 28.8 mph 35.7 mph N/A   Clear
10:15 AM 46.4 °F 37.5 °F 23.0 °F 40% 29.99 in 10.0 mi WNW 27.6 mph 34.5 mph N/A   Clear
10:35 AM 46.4 °F 37.0 °F 23.0 °F 40% 30.00 in 10.0 mi WNW 31.1 mph 39.1 mph N/A   Clear
10:55 AM 48.2 °F - 23.0 °F 37% 30.00 in 10.0 mi WNW 24.2 mph 39.1 mph N/A   Clear
11:15 AM 48.2 °F - 24.8 °F 40% 30.00 in 10.0 mi WNW 28.8 mph 35.7 mph N/A   Clear
11:35 AM 48.2 °F - 24.8 °F 40% 30.01 in 10.0 mi WNW 29.9 mph 35.7 mph N/A   Clear
11:55 AM 50.0 °F - 24.8 °F 37% 30.01 in 10.0 mi NW 26.5 mph 35.7 mph N/A   Clear
12:15 PM 48.2 °F - 23.0 °F 37% 30.01 in 10.0 mi NW 26.5 mph 34.5 mph N/A   Clear
12:35 PM 51.8 °F - 21.2 °F 30% 30.00 in 10.0 mi WNW 25.3 mph 33.4 mph N/A   Clear
12:55 PM 51.8 °F - 21.2 °F 30% 30.01 in 10.0 mi WNW 26.5 mph 33.4 mph N/A   Clear
1:15 PM 51.8 °F - 21.2 °F 30% 30.00 in 10.0 mi NW 21.9 mph 32.2 mph N/A   Clear
1:35 PM 51.8 °F - 21.2 °F 30% 30.01 in 10.0 mi WNW 21.9 mph 28.8 mph N/A   Clear
1:55 PM 51.8 °F - 19.4 °F 28% 30.01 in 10.0 mi WNW 26.5 mph 31.1 mph N/A   Clear
2:15 PM 51.8 °F - 19.4 °F 28% 30.00 in 10.0 mi WNW 23.0 mph 31.1 mph N/A   Clear
2:35 PM 51.8 °F - 19.4 °F 28% 30.00 in 10.0 mi WNW 24.2 mph 32.2 mph N/A   Clear
2:55 PM 51.8 °F - 17.6 °F 26% 30.01 in 10.0 mi WNW 21.9 mph - N/A   Clear
3:15 PM 46.4 °F 39.8 °F 17.6 °F 32% 30.02 in 10.0 mi NNE 16.1 mph 20.7 mph N/A   Clear
3:35 PM 44.6 °F 37.4 °F 17.6 °F 34% 30.02 in 10.0 mi NNE 16.1 mph - N/A   Clear
3:55 PM 44.6 °F 37.2 °F 17.6 °F 34% 30.02 in 10.0 mi NNE 17.3 mph - N/A   Clear
4:15 PM 44.6 °F 37.4 °F 17.6 °F 34% 30.03 in 10.0 mi NNE 16.1 mph 23.0 mph N/A   Clear
4:35 PM 44.6 °F 36.9 °F 15.8 °F 31% 30.03 in 10.0 mi NNE 18.4 mph 21.9 mph N/A   Clear
4:55 PM 42.8 °F 34.5 °F 15.8 °F 34% 30.04 in 10.0 mi NNE 18.4 mph - N/A   Clear
5:15 PM 41.0 °F 32.5 °F 15.8 °F 36% 30.05 in 10.0 mi NNE 17.3 mph 24.2 mph N/A   Clear
5:35 PM 39.2 °F 32.0 °F 14.0 °F 36% 30.05 in 10.0 mi NE 11.5 mph - N/A   Clear
5:55 PM 37.4 °F 28.5 °F 14.0 °F 38% 30.06 in 10.0 mi NNE 15.0 mph 23.0 mph N/A   Clear
6:35 PM 33.8 °F 22.2 °F 12.2 °F 41% 30.07 in 10.0 mi NNE 20.7 mph 25.3 mph N/A   Clear
6:55 PM 33.8 °F 22.5 °F 14.0 °F 44% 30.08 in 10.0 mi NNE 19.6 mph 24.2 mph N/A   Clear
7:15 PM 32.0 °F 20.5 °F 12.2 °F 44% 30.08 in 10.0 mi NNE 18.4 mph - N/A   Clear
7:35 PM 32.0 °F 21.2 °F 12.2 °F 44% 30.08 in 10.0 mi NNE 16.1 mph 21.9 mph N/A   Clear
7:55 PM 30.2 °F 19.3 °F 12.2 °F 47% 30.09 in 10.0 mi NNE 15.0 mph 23.0 mph N/A   Clear
8:15 PM 30.2 °F 18.9 °F 12.2 °F 47% 30.10 in 10.0 mi NNE 16.1 mph 21.9 mph N/A   Clear
8:35 PM 30.2 °F 20.2 °F 12.2 °F 47% 30.11 in 10.0 mi NNE 12.7 mph - N/A   Clear
8:55 PM 30.2 °F 19.8 °F 12.2 °F 47% 30.12 in 10.0 mi NE 13.8 mph 20.7 mph N/A   Clear
9:15 PM 30.2 °F 20.2 °F 12.2 °F 47% 30.11 in 10.0 mi NNE 12.7 mph - N/A   Clear
9:35 PM 30.2 °F 18.5 °F 10.4 °F 44% 30.11 in 10.0 mi NNE 17.3 mph 21.9 mph N/A   Clear
9:55 PM 30.2 °F 21.3 °F 10.4 °F 44% 30.12 in 10.0 mi NE 10.4 mph - N/A   Clear
10:15 PM 30.2 °F 22.6 °F 10.4 °F 44% 30.12 in 10.0 mi NNE 8.1 mph - N/A   Clear
10:35 PM 30.2 °F 20.2 °F 10.4 °F 44% 30.12 in 10.0 mi NE 12.7 mph - N/A   Clear
10:55 PM 28.4 °F 18.0 °F 10.4 °F 47% 30.13 in 10.0 mi NE 12.7 mph - N/A   Clear
11:15 PM 28.4 °F 18.0 °F 10.4 °F 47% 30.13 in 10.0 mi NE 12.7 mph - N/A   Clear
11:35 PM 28.4 °F 18.0 °F 10.4 °F 47% 30.13 in 10.0 mi NE 12.7 mph - N/A   Clear
11:55 PM 28.4 °F 18.5 °F 10.4 °F 47% 30.13 in 10.0 mi NNE 11.5 mph 17.3 mph N/A   Clear